When you browse on this site, cookies collect data to enhance your experience and personalize the content and advertising you see.
Visit our Privacy Policy to learn more. By continuing to use the site, you agree to this use of cookies and data.

Hourly Weather Begichevskiy

Today, 10 July, Friday

Time Temperature Precipitation Wind Pressure Humidity
00:00 +12°C° 0 mm 3 mps 743 mmHg 91%
01:00 +12°C° 0 mm 3 mps 743 mmHg 91%
02:00 +13°C° 0 mm 2 mps 743 mmHg 91%
03:00 +12°C° 0 mm 2 mps 744 mmHg 92%
04:00 +12°C° 0 mm 2 mps 744 mmHg 91%
05:00 +13°C° 0 mm 2 mps 744 mmHg 90%
06:00 +13°C° 0 mm 2 mps 745 mmHg 90%
07:00 +15°C° 0 mm 2 mps 745 mmHg 84%
08:00 +16°C° 0 mm 2 mps 745 mmHg 78%
09:00 +18°C° 0 mm 2 mps 745 mmHg 72%
10:00 +19°C° 0 mm 2 mps 746 mmHg 68%
11:00 +20°C° 0 mm 2 mps 746 mmHg 63%
12:00 +20°C° 0 mm 2 mps 746 mmHg 59%
13:00 +21°C° 0 mm 2 mps 746 mmHg 59%
14:00 +21°C° 0 mm 2 mps 746 mmHg 59%
15:00 +21°C° 0 mm 2 mps 746 mmHg 58%
16:00 +21°C° 0 mm 2 mps 746 mmHg 61%
17:00 +21°C° 0 mm 2 mps 746 mmHg 63%
18:00 +21°C° 0 mm 2 mps 746 mmHg 66%
19:00 +20°C° 0 mm 2 mps 746 mmHg 70%
20:00 +19°C° 0 mm 1 mps 746 mmHg 74%
21:00 +16°C° 0 mm 1 mps 746 mmHg 77%
22:00 +16°C° 0 mm 1 mps 746 mmHg 78%
23:00 +15°C° 0 mm 2 mps 746 mmHg 79%

Tomorrow, 11 July, Saturday

Time Temperature Precipitation Wind Pressure Humidity
00:00 +15°C° 0 mm 2 mps 746 mmHg 80%
01:00 +15°C° 0 mm 2 mps 746 mmHg 81%
02:00 +14°C° 0 mm 2 mps 747 mmHg 82%
03:00 +14°C° 0 mm 2 mps 747 mmHg 82%
04:00 +14°C° 0 mm 3 mps 747 mmHg 83%
05:00 +14°C° 0 mm 3 mps 747 mmHg 84%
06:00 +14°C° 0 mm 3 mps 747 mmHg 85%
07:00 +17°C° 0 mm 3 mps 747 mmHg 81%
08:00 +18°C° 0 mm 4 mps 747 mmHg 78%
09:00 +20°C° 0 mm 4 mps 747 mmHg 74%
10:00 +21°C° 0 mm 4 mps 747 mmHg 72%
11:00 +22°C° 0 mm 5 mps 747 mmHg 70%
12:00 +23°C° 0 mm 5 mps 747 mmHg 68%
13:00 +23°C° 0 mm 5 mps 746 mmHg 68%
14:00 +25°C° 0 mm 4 mps 746 mmHg 69%
15:00 +25°C° 0 mm 4 mps 746 mmHg 69%
16:00 +25°C° 0 mm 4 mps 746 mmHg 71%
17:00 +25°C° 0 mm 4 mps 746 mmHg 73%
18:00 +25°C° 0 mm 3 mps 745 mmHg 76%
19:00 +22°C° 0 mm 3 mps 745 mmHg 80%
20:00 +21°C° 0 mm 3 mps 745 mmHg 83%
21:00 +20°C° 0 mm 3 mps 745 mmHg 87%
22:00 +19°C° 0 mm 2 mps 745 mmHg 88%
23:00 +18°C° 0 mm 2 mps 745 mmHg 88%

Day after tomorrow, 12 July, Sunday

Time Temperature Precipitation Wind Pressure Humidity
00:00 +18°C° 0 mm 2 mps 745 mmHg 88%
01:00 +18°C° 0 mm 2 mps 745 mmHg 88%
02:00 +17°C° 0 mm 2 mps 745 mmHg 88%
03:00 +17°C° 0 mm 2 mps 745 mmHg 88%
04:00 +17°C° 0 mm 2 mps 744 mmHg 88%
05:00 +18°C° 0 mm 2 mps 744 mmHg 87%
06:00 +18°C° 0 mm 2 mps 744 mmHg 87%
07:00 +19°C° 0 mm 2 mps 744 mmHg 82%
08:00 +21°C° 0 mm 2 mps 744 mmHg 78%
09:00 +24°C° 0 mm 2 mps 744 mmHg 73%
10:00 +24°C° 0 mm 2 mps 744 mmHg 70%
11:00 +25°C° 0 mm 2 mps 744 mmHg 67%
12:00 +26°C° 0 mm 2 mps 743 mmHg 64%
13:00 +26°C° 0 mm 2 mps 743 mmHg 62%
14:00 +27°C° 0 mm 2 mps 743 mmHg 61%
15:00 +27°C° 0 mm 2 mps 743 mmHg 60%
16:00 +27°C° 0 mm 2 mps 742 mmHg 62%
17:00 +27°C° 0 mm 2 mps 742 mmHg 63%
18:00 +26°C° 0 mm 1 mps 741 mmHg 65%
19:00 +25°C° 0 mm 1 mps 741 mmHg 68%
20:00 +23°C° 0 mm 1 mps 741 mmHg 72%
21:00 +21°C° 0 mm 1 mps 740 mmHg 75%
22:00 +20°C° 0 mm 1 mps 740 mmHg 76%
23:00 +20°C° 0 mm 1 mps 740 mmHg 78%

13 July, Monday

Time Temperature Precipitation Wind Pressure Humidity
00:00 +19°C° 0 mm 1 mps 740 mmHg 79%
01:00 +19°C° 0 mm 1 mps 739 mmHg 80%
02:00 +17°C° 0 mm 2 mps 739 mmHg 81%
03:00 +17°C° 0 mm 2 mps 738 mmHg 81%
04:00 +17°C° 0 mm 2 mps 738 mmHg 83%
05:00 +18°C° 0 mm 2 mps 738 mmHg 84%
06:00 +18°C° 0 mm 2 mps 737 mmHg 85%
07:00 +19°C° 0.1 mm 3 mps 737 mmHg 83%
08:00 +21°C° 0.1 mm 3 mps 737 mmHg 81%
09:00 +22°C° 0.1 mm 3 mps 737 mmHg 79%
10:00 +22°C° 0.8 mm 4 mps 736 mmHg 82%
11:00 +22°C° 0.8 mm 4 mps 736 mmHg 85%
12:00 +22°C° 0.8 mm 4 mps 735 mmHg 89%
13:00 +22°C° 1.3 mm 3 mps 735 mmHg 89%
14:00 +23°C° 1.3 mm 2 mps 734 mmHg 90%
15:00 +23°C° 1.3 mm 2 mps 734 mmHg 91%
16:00 +23°C° 1.2 mm 2 mps 734 mmHg 90%
17:00 +23°C° 1.2 mm 2 mps 733 mmHg 90%
18:00 +22°C° 1.2 mm 3 mps 733 mmHg 89%
19:00 +21°C° 1.7 mm 3 mps 732 mmHg 91%
20:00 +20°C° 1.7 mm 2 mps 732 mmHg 94%
21:00 +20°C° 1.7 mm 2 mps 732 mmHg 96%
22:00 +19°C° 1.6 mm 2 mps 732 mmHg 96%
23:00 +19°C° 1.6 mm 2 mps 732 mmHg 97%

14 July, Tuesday

Time Temperature Precipitation Wind Pressure Humidity
00:00 +19°C° 1.6 mm 2 mps 731 mmHg 98%
01:00 +19°C° 1.6 mm 2 mps 731 mmHg 98%
02:00 +19°C° 1.6 mm 3 mps 731 mmHg 98%
03:00 +19°C° 1.6 mm 3 mps 731 mmHg 98%
04:00 +18°C° 1.6 mm 4 mps 731 mmHg 98%
05:00 +18°C° 1.6 mm 4 mps 731 mmHg 97%
06:00 +17°C° 1.6 mm 5 mps 731 mmHg 97%
07:00 +17°C° 0.2 mm 5 mps 731 mmHg 95%
08:00 +17°C° 0.2 mm 5 mps 731 mmHg 94%
09:00 +16°C° 0.2 mm 5 mps 731 mmHg 93%
10:00 +17°C° 0 mm 5 mps 732 mmHg 92%
11:00 +17°C° 0 mm 5 mps 732 mmHg 90%
12:00 +17°C° 0 mm 5 mps 732 mmHg 89%
13:00 +17°C° 0 mm 5 mps 732 mmHg 89%
14:00 +17°C° 0 mm 5 mps 732 mmHg 89%
15:00 +17°C° 0 mm 5 mps 732 mmHg 88%
16:00 +17°C° 0 mm 5 mps 732 mmHg 88%
17:00 +16°C° 0 mm 5 mps 732 mmHg 88%
18:00 +16°C° 0 mm 5 mps 732 mmHg 88%
19:00 +16°C° 0.1 mm 5 mps 732 mmHg 88%
20:00 +16°C° 0.1 mm 5 mps 732 mmHg 87%
21:00 +16°C° 0.1 mm 5 mps 732 mmHg 87%
22:00 +15°C° 0.1 mm 5 mps 732 mmHg 87%
23:00 +15°C° 0.1 mm 5 mps 732 mmHg 88%

15 July, Wednesday

Time Temperature Precipitation Wind Pressure Humidity
00:00 +14°C° 0.1 mm 5 mps 732 mmHg 88%
01:00 +14°C° 0.9 mm 6 mps 733 mmHg 90%
02:00 +14°C° 0.9 mm 6 mps 733 mmHg 92%
03:00 +14°C° 0.9 mm 7 mps 733 mmHg 94%
04:00 +14°C° 0.9 mm 7 mps 734 mmHg 94%
05:00 +12°C° 0.9 mm 7 mps 734 mmHg 94%
06:00 +13°C° 0.9 mm 6 mps 735 mmHg 94%
07:00 +14°C° 0.2 mm 6 mps 735 mmHg 92%
08:00 +14°C° 0.2 mm 6 mps 736 mmHg 90%
09:00 +14°C° 0.2 mm 6 mps 736 mmHg 89%
10:00 +15°C° 0 mm 6 mps 737 mmHg 81%
11:00 +16°C° 0 mm 6 mps 738 mmHg 74%
12:00 +17°C° 0 mm 6 mps 738 mmHg 67%
13:00 +19°C° 0 mm 6 mps 739 mmHg 65%
14:00 +19°C° 0 mm 6 mps 739 mmHg 64%
15:00 +19°C° 0 mm 6 mps 739 mmHg 62%
16:00 +19°C° 0 mm 5 mps 739 mmHg 65%
17:00 +19°C° 0 mm 4 mps 740 mmHg 69%
18:00 +19°C° 0 mm 3 mps 740 mmHg 72%
19:00 +18°C° 0 mm 3 mps 740 mmHg 75%
20:00 +17°C° 0 mm 3 mps 740 mmHg 78%
21:00 +14°C° 0 mm 3 mps 740 mmHg 82%
22:00 +14°C° 0 mm 3 mps 741 mmHg 83%
23:00 +13°C° 0 mm 3 mps 741 mmHg 83%
Show more